Location: Northam
(31.6525°S, 116.6655°E)
Time: 03:27:41
(UTC+08:00)

STARLINK-1927 - Pass Details

Date: 17 January 2021
Orbit: 422 x 423 km, 53.0° (Epoch: 28 February)

Event Time Altitude Azimuth Distance (km) Brightness Sun altitude
Rises 21:28:19 0° 237° (WSW) 2,375 8.2 -23.0°
Reaches altitude 10° 21:30:45 10° 252° (WSW) 1,480 6.7 -23.3°
Enters shadow 21:32:42 21° 285° (WNW) 975 5.2 -23.6°
